This is the latest recevied weather packets stored in our database for station/object W7WSW. If no packets are shown the sender has not sent any weather packets the latest 10 day(s).
| Time | Temp. | Humidity | Pressure | Rain* | Wind** | Luminosity | Snow |
|---|---|---|---|---|---|---|---|
| 1777480569 | 12.22° C | 78% | 1024 hPa | 0 mm | - | 534 W/m² | - |
| 1777480509 | 11.67° C | 78% | 1024 hPa | 0 mm | - | 534 W/m² | - |
| 1777480449 | 11.67° C | 78% | 1023.9 hPa | 0 mm | - | 531 W/m² | - |
| 1777480389 | 11.67° C | 78% | 1024 hPa | 0 mm | - | 527 W/m² | - |
| 1777480329 | 11.67° C | 79% | 1024 hPa | 0 mm | - | 524 W/m² | - |
| 1777480264 | 11.67° C | 79% | 1024 hPa | 0 mm | - | 522 W/m² | - |
| 1777480205 | 11.67° C | 79% | 1024 hPa | 0 mm | - | 519 W/m² | - |
| 1777480144 | 11.67° C | 79% | 1024 hPa | 0 mm | - | 519 W/m² | - |
| 1777480083 | 11.11° C | 79% | 1024 hPa | 0 mm | - | 515 W/m² | - |
| 1777480023 | 11.11° C | 79% | 1024 hPa | 0 mm | - | 513 W/m² | - |
| 1777479961 | 11.11° C | 79% | 1024 hPa | 0 mm | - | 510 W/m² | - |
| 1777479902 | 11.11° C | 79% | 1024 hPa | 0 mm | - | 508 W/m² | - |
| 1777479842 | 11.11° C | 79% | 1024 hPa | 0 mm | - | 503 W/m² | - |
| 1777479780 | 11.11° C | 79% | 1024.1 hPa | 0 mm | - | 501 W/m² | - |
| 1777479716 | 11.11° C | 79% | 1024.2 hPa | 0 mm | - | 497 W/m² | - |
| 1777479650 | 11.11° C | 80% | 1024.1 hPa | 0 mm | - | 496 W/m² | - |
| 1777479590 | 11.11° C | 80% | 1024.1 hPa | 0 mm | - | 494 W/m² | - |
| 1777479530 | 11.11° C | 80% | 1024.1 hPa | 0 mm | - | 490 W/m² | - |
| 1777479470 | 11.11° C | 81% | 1024.2 hPa | 0 mm | - | 487 W/m² | - |
| 1777479409 | 11.11° C | 81% | 1024.1 hPa | 0 mm | - | 487 W/m² | - |
| 1777479346 | 11.11° C | 81% | 1024.2 hPa | 0 mm | - | 483 W/m² | - |
| 1777479285 | 11.11° C | 81% | 1024.1 hPa | 0 mm | - | 480 W/m² | - |
| 1777479225 | 11.11° C | 81% | 1024.1 hPa | 0 mm | - | 476 W/m² | - |
| 1777479165 | 11.11° C | 81% | 1024.2 hPa | 0 mm | - | 473 W/m² | - |
| 1777479103 | 11.11° C | 81% | 1024.2 hPa | 0 mm | - | 471 W/m² | - |
* Rain latest hour (hover to see other rain measurements)
** Current wind speed in m/s (hover to see current wind gust speed)